Saginaw, MI

2:48 PM EDT on September 26, 2017 (GMT -0400)
MBS International

Weather History for KMBS - December, 2014

Change the Weather History Date:

Monday, December 15, 2014

  Actual Average Record
Temperature  
Mean Temperature 48 °F 27 °F  
Max Temperature 52 °F 33 °F 55 °F (2011)
Min Temperature 44 °F 21 °F 8 °F (2010)
Degree Days  
Heating Degree Days 17    
Month to date heating degree days 489  
Since 1 July heating degree days 1985  
Cooling Degree Days 0    
Month to date cooling degree days 0  
Year to date cooling degree days 539  
Moisture  
Dew Point 43 °F    
Average Humidity 82    
Maximum Humidity 93    
Minimum Humidity 71    
Precipitation  
Precipitation 0.01 in 0.05 in 0.31 in (2005)
Month to date precipitation 0.13 0.96  
Year to date precipitation 30.50 30.64  
Snow  
Snow 0.00 in - - ()
Month to date snowfall 0.4  
Since 1 July snowfall 3.3  
Snow Depth 0.00 in    
Sea Level Pressure  
Sea Level Pressure 29.97 in    
Wind  
Wind Speed 8 mph (South)    
Max Wind Speed 17 mph    
Max Gust Speed 19 mph    
Visibility 5 miles    
Events Fog , Rain    
T = Trace of Precipitation, MM = Missing Value Source: NWS Daily Summary

Daily Weather History Graph

Daily Weather History Graph

Search for Another Location

Airport or City:

Trip Planner

Search our weather history database for the weather conditions in past years. The results will help you decide how hot, cold, wet, or windy it might be!

Date:

Astronomy

Dec. 15, 2014 Rise Set
Actual Time 8:02 AM EST 5:00 PM EST
Civil Twilight 7:29 AM EST 5:33 PM EST
Nautical Twilight 6:53 AM EST 6:09 PM EST
Astronomical Twilight 6:18 AM EST 6:44 PM EST
Moon 1:09 AM EST (12/15) 1:09 PM EST (12/15)
Length of Visible Light 10h 03m
Length of Day
8h 58m
Last Quarter, 39% of the Moon is Illuminated
Dec 15
Last Quarter
Dec 21
New
Dec 28
First Quarter
Jan 4
Full
Jan 13
Last Quarter

Hourly Weather History & Observations

Time (EST) Temp. Windchill Dew Point Humidity Pressure Visibility Wind Dir Wind Speed Gust Speed Precip Events Conditions
12:53 AM 46.0 °F 43.1 °F 45.0 °F 96% 30.04 in 0.2 mi South 5.8 mph - N/A Fog Fog
1:38 AM 46.9 °F - 45.0 °F 93% 30.02 in 0.5 mi South 6.9 mph - N/A Fog Fog
1:53 AM 46.9 °F - 45.0 °F 93% 30.03 in 1.0 mi South 6.9 mph - N/A   Overcast
2:30 AM 46.9 °F - 45.0 °F 93% 30.02 in 2.0 mi SSW 8.1 mph - 0.00 in   Overcast
2:53 AM 46.9 °F - 45.0 °F 93% 30.04 in 2.0 mi South 6.9 mph - 0.00 in   Overcast
3:08 AM 46.9 °F - 45.0 °F 93% 30.02 in 1.8 mi South 6.9 mph - N/A   Overcast
3:53 AM 46.9 °F - 45.0 °F 93% 30.03 in 1.5 mi SSW 5.8 mph - N/A   Overcast
4:39 AM 46.9 °F - 45.0 °F 93% 30.01 in 1.8 mi South 6.9 mph - N/A   Overcast
4:53 AM 46.9 °F - 45.0 °F 93% 30.01 in 2.5 mi South 6.9 mph - N/A   Overcast
5:03 AM 46.9 °F - 45.0 °F 93% 30.00 in 2.5 mi South 6.9 mph - N/A   Overcast
5:53 AM 46.9 °F - 45.0 °F 93% 30.01 in 2.5 mi SSW 6.9 mph - N/A   Overcast
6:53 AM 46.9 °F - 44.1 °F 90% 30.01 in 2.5 mi South 5.8 mph - N/A   Overcast
7:17 AM 46.9 °F - 44.1 °F 90% 30.00 in 4.0 mi SSW 5.8 mph - N/A   Overcast
7:28 AM 46.9 °F - 44.1 °F 90% 30.00 in 4.0 mi South 4.6 mph - N/A   Overcast
7:40 AM 46.9 °F - 44.1 °F 90% 30.00 in 4.0 mi SSW 4.6 mph - N/A   Overcast
7:53 AM 46.9 °F - 44.1 °F 90% 30.01 in 4.0 mi SSW 4.6 mph - N/A   Overcast
8:05 AM 46.9 °F - 44.1 °F 90% 30.00 in 2.5 mi South 5.8 mph - N/A   Overcast
8:53 AM 46.9 °F - 44.1 °F 90% 30.02 in 2.5 mi SW 9.2 mph - N/A   Overcast
9:53 AM 46.9 °F - 44.1 °F 90% 30.00 in 2.5 mi SSW 6.9 mph - N/A   Overcast
10:53 AM 48.0 °F - 44.1 °F 86% 30.00 in 2.5 mi SW 10.4 mph - N/A   Overcast
11:53 AM 48.0 °F - 44.1 °F 86% 29.97 in 2.5 mi SSW 8.1 mph - N/A   Overcast
12:30 PM 48.9 °F - 43.0 °F 80% 29.95 in 6.0 mi SSW 8.1 mph - N/A   Haze
12:46 PM 50.0 °F - 44.1 °F 80% 29.94 in 6.0 mi SSW 10.4 mph - N/A   Haze
12:53 PM 50.0 °F - 44.1 °F 80% 29.95 in 6.0 mi SSW 10.4 mph - N/A   Haze
1:40 PM 51.1 °F - 43.0 °F 74% 29.93 in 9.0 mi SW 10.4 mph - N/A   Overcast
1:53 PM 51.1 °F - 43.0 °F 74% 29.93 in 9.0 mi SSW 9.2 mph - N/A   Overcast
2:53 PM 52.0 °F - 43.0 °F 71% 29.92 in 10.0 mi South 10.4 mph - N/A   Overcast
3:53 PM 51.1 °F - 42.1 °F 71% 29.92 in 10.0 mi SSW 5.8 mph - N/A   Overcast
4:53 PM 50.0 °F - 42.1 °F 74% 29.90 in 10.0 mi SSE 5.8 mph - N/A   Overcast
5:53 PM 46.0 °F 43.9 °F 41.0 °F 83% 29.89 in 10.0 mi SE 4.6 mph - N/A   Mostly Cloudy
6:53 PM 45.0 °F 41.8 °F 41.0 °F 86% 29.90 in 9.0 mi SE 5.8 mph - N/A   Scattered Clouds
7:53 PM 46.0 °F 41.9 °F 39.9 °F 79% 29.88 in 10.0 mi SE 8.1 mph - N/A   Overcast
8:53 PM 46.0 °F 41.9 °F 39.9 °F 79% 29.87 in 8.0 mi SE 8.1 mph - N/A   Overcast
9:53 PM 45.0 °F 40.6 °F 39.9 °F 82% 29.88 in 6.0 mi SE 8.1 mph - N/A   Haze
10:53 PM 45.0 °F 40.1 °F 39.9 °F 82% 29.85 in 6.0 mi SE 9.2 mph - N/A   Haze
11:53 PM 44.1 °F 38.6 °F 39.9 °F 85% 29.82 in 5.0 mi ESE 10.4 mph - 0.00 in Rain Light Rain